Flag for Belarus Weather past 2 weeks in Gomel, Belarus

Now
79 °F

Partly sunny.


Feels Like: 79 °F
Forecast: 56 / 85 °F
Wind: 13 mph from East

Location: Gomel'

Current Time: Jul 23, 2014 at 3:39:08 PM

Latest Report: Jul 23, 2014 at 2:30 PM


Visibility: N/A

Pressure: 30.09 "Hg

Humidity: 30%

Dew point: 45 °F

Location of GomelLocation

Historic Weather in Gomel — Graph

°F

Gomel temperature yesterday

Maximum temperature yesterday: 79 °F (at 5:00 PM)
Minimum temperature yesterday: 59 °F (at 5:00 AM)
Average temperature yesterday: 69 °F

Past Weeks' High & Low Weather Summary

 TemperatureHumidityPressure
High88 °F (Jul 16, 4:00 PM)100% (Jul 10, 12:00 AM)30.12 "Hg (Jul 10, 12:00 AM)
Low59 °F (Jul 9, 5:00 AM)30% (Jul 23, 2:00 PM)29.77 "Hg (Jul 12, 3:00 PM)
Average71 °F74%29.96 "Hg
* Reported Jul 8 2:00 PM — Jul 23 2:30 PM, Gomel, Weather by CustomWeather, © 2014

Note: Actual official high and low records may vary slightly from our data, if they occured in-between our weather recording intervals... More about our weather records

Advertising

Gomel weather history for previous 24 hours

 ConditionsComfort  
Time TempWeatherWind HumidityBarometerVisibility
2:30 PM
Jul 23
79 °FPartly sunny.13 mph30%30.09 "HgN/A
2:00 PM79 °FPartly sunny.13 mph30%30.09 "HgN/A
1:30 PM77 °FPartly sunny.10 mph34%30.09 "HgN/A
1:00 PM77 °FPartly sunny.13 mph34%30.09 "HgN/A
12:30 PM77 °FSunny.15 mph36%30.09 "Hg10 mi
12:00 PM77 °FSunny.15 mph36%30.09 "Hg10 mi
11:30 AM77 °FSunny.15 mph36%30.09 "Hg10 mi
11:00 AM77 °FSunny.13 mph36%30.09 "Hg10 mi
9:00 AM68 °FSunny.8 mph60%30.09 "Hg10 mi
8:00 AM63 °FSunny.6 mph77%30.09 "Hg10 mi
7:30 AM61 °FSunny.3 mph83%30.09 "Hg10 mi
7:00 AM61 °FSunny.6 mph83%30.07 "Hg10 mi
6:00 AM59 °FClear.3 mph88%30.07 "Hg10 mi
5:00 AM59 °FClear.3 mph94%30.07 "Hg10 mi
4:00 AM59 °FClear.3 mph94%30.07 "Hg4 mi
3:00 AM59 °FClear.3 mph94%30.07 "Hg6 mi
2:00 AM59 °FClear.6 mph94%30.07 "Hg10 mi
8:00 PM
Jul 22
70 °FBroken clouds.3 mph83%30.01 "HgN/A
7:30 PM70 °FBroken clouds.6 mph83%30.01 "HgN/A
7:00 PM70 °FPartly sunny.6 mph83%30.01 "HgN/A
6:30 PM70 °FThunderstorms. Partly sunny.8 mph78%30.01 "HgN/A
6:00 PM70 °FThunderstorms. Partly sunny.10 mph78%30.01 "Hg2 mi
5:30 PM79 °FThunderstorms. Partly sunny.13 mph45%29.98 "HgN/A
5:00 PM79 °FBroken clouds.15 mph45%29.98 "HgN/A
4:30 PM77 °FBroken clouds.13 mph51%29.98 "HgN/A
4:00 PM77 °FBroken clouds.13 mph51%29.98 "HgN/A
3:30 PM77 °FBroken clouds.10 mph47%29.98 "HgN/A
3:00 PM77 °FPartly sunny.10 mph47%29.98 "HgN/A
Weather by CustomWeather, © 2014

See weather overviewHow to use our weather pages